[[{"header":{"parameterUnit":"m.s-1","parameterCategory":1,"la1":30.2991,"la2":30.254,"lo1":-89.0895,"lo2":-89.0444,"dy":0.0017,"dx":0.0017,"nx":28,"ny":28,"refTime":"2025-07-19T21:00:00:Z","depth":0,"parameterNumber":2,"parameterNumberName":"U-component_of_WINDS"},"data":[0,0,0,0,0,0,0,0,0,0,0,0,0,0,0,0,0,0,0,0,0,0,0,0,0,0,0,0,0,0,0,0,0,0,0,0,0,0,0,0,0,0,0,0,0,0,0,0,0,0,0,0,0,0,0,0,0,0,2.3189,2.319,0,2.3291,2.3292,2.3294,2.3284,2.3282,2.3281,2.3279,2.3391,2.3396,2.34,0,0,0,0,0,0,0,0,0,0,0,0,0,2.2993,2.2997,2.3189,2.319,2.3191,2.3291,2.3292,2.3294,2.3284,2.3282,2.328,2.3278,2.339,2.3395,2.34,0,0,0,0,0,0,0,0,0,0,0,0,0,2.3085,2.2998,2.3189,2.3198,2.32,2.3291,2.3292,2.3294,2.3285,2.3282,2.328,2.3278,2.3388,2.3395,2.3401,2.3491,0,0,2.3422,2.3425,0,0,0,0,0,0,0,0,2.308,2.3093,2.3196,2.3198,2.32,2.3272,2.3264,2.336,2.3285,2.3253,2.3279,2.3276,2.3354,2.3363,2.3388,2.3496,2.3501,2.3422,2.3426,2.3429,2.3431,0,0,0,0,0,0,0,2.3074,2.3088,2.323,2.3197,2.32,2.32,2.3211,2.3283,2.3316,2.3255,2.3255,2.3267,2.3355,2.3382,2.3391,2.3502,2.3422,2.3428,2.3432,2.3435,2.3691,2.3694,0,0,0,0,0,0,2.3064,2.3083,2.3226,2.3233,2.3133,2.3206,2.3217,2.3252,2.3315,2.3322,2.3269,2.3266,2.3371,2.3383,2.3395,2.3505,2.3429,2.3435,2.3439,2.3688,2.3692,2.3695,0,0,0,0,0,0,2.306,2.3077,2.3222,2.3158,2.3176,2.3212,2.325,2.3255,2.3282,2.3325,2.3332,2.3289,2.337,2.3385,2.3467,2.3508,2.3438,2.3445,2.3685,2.3689,2.3693,2.3725,0,0,0,0,0,0,2.3054,2.3075,2.3108,2.3158,2.318,2.329,2.3253,2.3259,2.3292,2.329,2.3346,2.3353,2.3369,2.3457,2.3473,2.3516,2.345,2.3682,2.3687,2.3692,2.372,2.373,2.3738,0,0,0,0,0,2.3047,2.3114,2.3109,2.3127,2.322,2.3293,2.3305,2.332,2.3296,2.333,2.3358,2.3352,2.3501,2.3465,2.3484,2.353,2.3679,2.3685,2.3692,2.3717,2.3728,2.3738,0,0,0,0,0,0,2.3069,2.3121,2.3116,2.3201,2.3242,2.3291,2.3334,2.3331,2.3382,2.3378,2.3396,2.341,2.3492,2.3519,2.3478,2.3621,2.3587,2.3598,2.36,2.3611,2.362,2.3612,2.3455,0,0,0,0,0,2.3084,2.3136,2.3178,2.3249,2.327,2.3299,2.3331,2.3338,2.3383,2.3401,2.3435,2.3481,2.3539,2.3576,2.3632,2.3724,2.3738,2.3765,2.3774,2.3781,2.379,2.3843,2.3856,2.3715,2.3715,2.3715,0,0,2.3114,2.3149,2.3181,2.3254,2.3287,2.3343,2.3313,2.3374,2.3416,2.3411,2.349,2.3517,2.357,2.3657,2.3698,2.3683,2.3832,2.3789,2.3794,2.3799,2.3851,2.3864,2.3876,2.372,2.3719,2.3718,0,0,2.3199,2.3229,2.3292,2.3326,2.3375,2.3394,2.3409,2.3459,2.3476,2.3555,2.3553,2.3605,2.3703,2.3741,2.3773,2.3874,2.3871,2.3892,2.3938,2.3989,2.4,2.401,2.4048,2.4061,2.3901,2.3901,2.3901,0,2.3232,2.3314,2.3325,2.3386,2.342,2.3416,2.3481,2.3514,2.358,2.3605,2.3586,2.371,2.3745,2.3842,2.3867,2.3893,2.3913,2.3886,2.3997,2.4007,2.4017,2.4053,2.4067,2.3903,2.3903,2.3902,2.3902,0,2.3352,2.3409,2.3455,2.3516,2.3555,2.3618,2.3642,2.368,2.3685,2.3707,2.3789,2.383,2.3895,2.3918,2.3924,2.4018,2.4007,2.3992,2.3959,2.4032,2.4067,2.408,2.3906,2.3905,2.3905,2.3904,0,0,2.3454,2.3521,2.3538,2.3567,2.3622,2.3668,2.3732,2.3792,2.3826,2.3872,2.3928,2.4011,2.3998,2.4035,2.4046,2.4091,2.417,2.4071,2.4073,2.4089,2.4278,2.4289,2.4304,2.4168,2.417,2.4173,2.4274,0,2.3545,2.3655,2.3668,2.3768,2.3822,2.382,2.3876,2.3917,2.394,2.3991,2.4017,2.4076,2.4054,2.4076,2.4121,2.4151,2.4208,2.4144,2.4222,2.4225,2.421,2.4322,2.4334,2.4427,2.4287,2.4289,2.4291,0,2.3666,2.3714,2.3818,2.3867,2.389,2.394,2.3998,2.4046,2.4094,2.4107,2.4149,2.4154,2.4223,2.4186,2.4283,2.4239,2.4272,2.4292,2.4296,2.4305,2.4263,2.4335,2.4457,2.4472,2.4312,2.431,2.4309,0,2.3731,2.3822,2.3896,2.3921,2.3979,2.4015,2.4042,2.4087,2.4123,2.4174,2.4199,2.4258,2.4291,2.4338,2.4361,2.4331,2.4457,2.4422,2.4472,2.4472,2.4499,2.4498,2.463,2.4519,2.4519,2.4519,2.4518,0,2.3833,2.3897,2.3927,2.3972,2.4045,2.4061,2.4134,2.4159,2.42,2.4253,2.4255,2.4306,2.4331,2.4386,2.4404,2.4483,2.4497,2.4512,2.4516,2.4512,2.4511,2.4535,2.453,2.4522,2.4521,2.4521,2.452,0,2.3918,2.394,2.4021,2.407,2.4084,2.4135,2.4178,2.4224,2.4246,2.4313,2.433,2.4366,2.4431,2.4457,2.4537,2.4549,2.464,2.4639,2.4623,2.4625,2.4674,2.4669,2.4827,2.485,2.4723,2.4724,2.4725,0,2.3981,2.4031,2.4084,2.4119,2.4146,2.4201,2.4238,2.4256,2.4295,2.4354,2.4394,2.4458,2.451,2.4614,2.4649,2.4711,2.4712,2.4763,2.4721,2.4716,2.4715,2.4712,2.4718,2.4771,2.4772,2.4773,2.4774,0,2.4093,2.4101,2.4152,2.4208,2.4251,2.4297,2.4341,2.437,2.4396,2.4439,2.4504,2.4545,2.4626,2.4691,2.4754,2.4785,2.4785,2.4787,2.4802,2.4799,2.4788,2.4796,2.4645,2.4783,2.4783,2.4782,2.4781,2.4781,2.417,2.4214,2.4259,2.4316,2.4351,2.4393,2.4439,2.4466,2.452,2.4585,2.4594,2.4664,2.4714,2.4799,2.4832,2.4889,2.4876,2.4898,2.4904,2.4909,2.4913,2.4778,2.4901,2.4901,2.49,2.49,2.49,0,2.4282,2.4311,2.4363,2.4425,2.4471,2.4464,2.4513,2.4553,2.4614,2.4659,2.471,2.4786,2.4849,2.4888,2.4953,2.4991,2.4993,2.5007,2.5005,2.5013,2.492,2.4901,2.5005,2.5005,2.5005,2.5005,2.5005,2.5005,2.4346,2.4421,2.4435,2.4528,2.4557,2.4624,2.4653,2.4692,2.4728,2.4812,2.4863,2.4888,2.4931,2.4999,2.5057,2.5067,2.5092,2.5107,2.5117,2.503,2.5019,2.5009,2.4991,2.5112,2.5112,2.5205,2.5206,2.5207]},{"header":{"parameterUnit":"m.s-1","parameterCategory":1,"la1":30.2991,"la2":30.254,"lo1":-89.0895,"lo2":-89.0444,"dy":0.0017,"dx":0.0017,"nx":28,"ny":28,"refTime":"2025-07-19T21:00:00:Z","depth":0,"parameterNumber":3,"parameterNumberName":"V-component_of_WINDS"},"data":[0,0,0,0,0,0,0,0,0,0,0,0,0,0,0,0,0,0,0,0,0,0,0,0,0,0,0,0,0,0,0,0,0,0,0,0,0,0,0,0,0,0,0,0,0,0,0,0,0,0,0,0,0,0,0,0,0,0,1.3356,1.3356,0,1.3393,1.3393,1.3394,1.3409,1.3409,1.3409,1.3409,1.3445,1.3446,1.3447,0,0,0,0,0,0,0,0,0,0,0,0,0,1.3293,1.3295,1.3356,1.3356,1.3357,1.3393,1.3393,1.3394,1.3409,1.3409,1.3409,1.3409,1.3445,1.3446,1.3447,0,0,0,0,0,0,0,0,0,0,0,0,0,1.3325,1.3295,1.3356,1.3369,1.337,1.3393,1.3393,1.3394,1.3409,1.3409,1.3409,1.3409,1.3444,1.3446,1.3447,1.3459,0,0,1.3452,1.3453,0,0,0,0,0,0,0,0,1.3323,1.3327,1.3366,1.3368,1.337,1.3397,1.3385,1.3416,1.341,1.3395,1.3409,1.3409,1.3429,1.3432,1.3439,1.346,1.3462,1.3452,1.3453,1.3454,1.3454,0,0,0,0,0,0,0,1.3321,1.3325,1.337,1.3367,1.3369,1.3371,1.3376,1.3391,1.3412,1.3396,1.3397,1.3401,1.343,1.3437,1.344,1.3463,1.3452,1.3454,1.3454,1.3455,1.3491,1.3491,0,0,0,0,0,0,1.3317,1.3323,1.3369,1.3372,1.3346,1.3373,1.3377,1.3388,1.3412,1.3415,1.3401,1.3402,1.3435,1.3438,1.3441,1.3454,1.3454,1.3455,1.3456,1.3491,1.3491,1.3491,0,0,0,0,0,0,1.3315,1.3321,1.3368,1.3348,1.3354,1.3374,1.3385,1.3389,1.3396,1.3416,1.3419,1.3406,1.3435,1.3439,1.3454,1.3455,1.3456,1.3457,1.3491,1.3491,1.3491,1.348,0,0,0,0,0,0,1.3313,1.332,1.3326,1.3348,1.3355,1.3381,1.3386,1.339,1.3399,1.34,1.3421,1.3424,1.3435,1.3451,1.3455,1.3457,1.3458,1.3491,1.3491,1.3491,1.3481,1.348,1.348,0,0,0,0,0,1.3311,1.3322,1.3326,1.3332,1.3363,1.3381,1.3385,1.3398,1.3399,1.3404,1.3416,1.3423,1.3454,1.3453,1.3457,1.346,1.3491,1.3491,1.3491,1.3481,1.348,1.348,0,0,0,0,0,0,1.33,1.3325,1.333,1.3349,1.3363,1.3384,1.3391,1.3398,1.3411,1.3412,1.3427,1.3431,1.3444,1.3453,1.3451,1.347,1.3473,1.3474,1.3464,1.3463,1.3463,1.346,1.346,0,0,0,0,0,1.33,1.3314,1.3334,1.3348,1.3355,1.3371,1.338,1.3389,1.3403,1.3409,1.3423,1.3436,1.3448,1.3456,1.3469,1.3482,1.3485,1.3486,1.3485,1.3484,1.3485,1.3489,1.3489,1.3492,1.3492,1.3492,0,0,1.3299,1.3315,1.3323,1.3346,1.3358,1.337,1.3377,1.339,1.3399,1.3411,1.3426,1.3435,1.3451,1.3464,1.347,1.3472,1.3485,1.3485,1.3484,1.3485,1.349,1.3489,1.3489,1.3492,1.3492,1.3492,0,0,1.3304,1.3318,1.333,1.3341,1.3359,1.3369,1.3372,1.3391,1.3398,1.3413,1.3421,1.3431,1.3453,1.3463,1.347,1.3475,1.3481,1.3478,1.3476,1.348,1.3479,1.3479,1.3479,1.3479,1.3479,1.3479,1.3479,0,1.3302,1.3322,1.3335,1.3347,1.3356,1.3367,1.3378,1.3388,1.3408,1.3413,1.3415,1.3441,1.3452,1.3466,1.3467,1.3474,1.3475,1.3476,1.3479,1.3479,1.3479,1.3478,1.3478,1.3478,1.3479,1.3479,1.3479,0,1.3316,1.3329,1.3336,1.3355,1.3364,1.3376,1.3389,1.3397,1.3403,1.3413,1.3426,1.3439,1.3454,1.3457,1.3465,1.3471,1.3472,1.3476,1.3479,1.3478,1.3477,1.3478,1.3478,1.3478,1.3478,1.3478,0,0,1.3317,1.3341,1.3343,1.335,1.3369,1.3379,1.3389,1.3403,1.3408,1.3421,1.3428,1.3445,1.3448,1.3456,1.3464,1.3468,1.3468,1.3471,1.3472,1.3469,1.3473,1.3469,1.3469,1.3471,1.3472,1.3472,1.3471,0,1.3323,1.3343,1.3354,1.3369,1.3379,1.3388,1.3397,1.3408,1.3416,1.3425,1.3434,1.3444,1.3449,1.3453,1.3458,1.3467,1.3468,1.3467,1.3477,1.3477,1.3472,1.3469,1.3466,1.3465,1.3471,1.3471,1.3471,0,1.3335,1.3346,1.3362,1.3375,1.338,1.3388,1.34,1.3409,1.342,1.3426,1.3434,1.3441,1.345,1.3452,1.3463,1.3461,1.3466,1.347,1.3471,1.3472,1.3474,1.3469,1.3465,1.3464,1.3472,1.3472,1.3472,0,1.3331,1.3351,1.3362,1.3368,1.3385,1.339,1.3397,1.3408,1.3415,1.3425,1.3428,1.3439,1.3445,1.3452,1.3461,1.3462,1.347,1.3473,1.3473,1.3473,1.3474,1.3474,1.347,1.3479,1.3479,1.3479,1.3479,0,1.3337,1.3346,1.336,1.3367,1.3376,1.3387,1.3395,1.3402,1.3412,1.3419,1.3427,1.3433,1.3445,1.3452,1.3459,1.3465,1.3468,1.3471,1.3473,1.347,1.3469,1.3473,1.3473,1.3479,1.3479,1.3479,1.3479,0,1.3336,1.3346,1.3358,1.3372,1.3376,1.3381,1.3393,1.3399,1.3406,1.3414,1.3417,1.3428,1.3437,1.3446,1.3458,1.3462,1.3467,1.347,1.3464,1.3464,1.3463,1.3462,1.346,1.346,1.3469,1.3469,1.3469,0,1.3338,1.3345,1.3359,1.3364,1.3371,1.3379,1.3385,1.3395,1.3401,1.3412,1.3416,1.3425,1.3432,1.3444,1.3453,1.3461,1.3463,1.3462,1.3465,1.3461,1.3461,1.346,1.346,1.3461,1.3461,1.3461,1.3461,0,1.3341,1.3345,1.3354,1.3363,1.337,1.3378,1.3386,1.339,1.3401,1.3406,1.3415,1.342,1.3431,1.3438,1.3447,1.3453,1.3458,1.346,1.346,1.3457,1.3452,1.3453,1.346,1.346,1.346,1.346,1.346,1.346,1.3341,1.3345,1.3355,1.3364,1.3371,1.3377,1.3382,1.339,1.3397,1.3406,1.3411,1.3419,1.3427,1.3439,1.3444,1.3449,1.3451,1.3451,1.3451,1.3451,1.3449,1.3451,1.345,1.345,1.345,1.345,1.345,0,1.3342,1.3348,1.3356,1.3366,1.3372,1.3376,1.3385,1.3389,1.3395,1.3403,1.3409,1.3417,1.3423,1.3432,1.3438,1.344,1.3443,1.3442,1.3441,1.3442,1.3448,1.3446,1.344,1.344,1.344,1.344,1.344,1.344,1.3344,1.3351,1.3356,1.3366,1.3372,1.3379,1.3383,1.3388,1.3394,1.3402,1.3407,1.3413,1.3419,1.3426,1.3432,1.3434,1.3435,1.3433,1.3436,1.3441,1.3442,1.3443,1.3442,1.3434,1.3434,1.3429,1.3429,1.3429]}]]